Dewpoint
59 57 50 48 40 41 38 40 45 45 45 46 47 47 48 49 49 46 56 57 57 56 54 54 54 52 51 50 50 49 49 49 49 48 48 47 47 47 47 47 46 47 47 47 47 47 47 46 45
52 50 47 44 37 34 35 45 44 46 46 47 47 45 45 46 50 54 55 56 55 53 53 53 52 51 50 49 48 48 48 47 47 46 46 45 44 44 44 45 44 45 45 45 45 45 43 43 42
47 45 42 39 39 38 38 45 45 46 47 47 46 47 45 47 49 51 55 54 53 52 53 52 51 49 48 47 47 47 46 45 44 44 42 42 42 41 41 42 42 43 43 43 43 42 41 40 39
46 45 43 40 35 40 43 45 46 47 46 46 47 45 47 48 48 52 54 53 52 52 52 51 51 49 47 46 46 45 44 43 43 42 40 40 40 39 39 39 40 40 40 40 40 39 38 37 37
46 43 39 41 40 43 46 47 47 46 46 45 46 45 44 45 46 53 52 52 51 51 51 51 51 49 47 45 44 43 43 42 41 41 40 39 39 38 37 37 38 38 39 38 38 37 37 37 36
41 40 35 35 40 45 47 47 47 46 46 45 45 44 43 45 45 49 51 51 51 50 51 52 51 49 46 44 42 41 41 42 40 40 38 38 37 36 36 36 37 37 38 38 37 36 36 34 34
38 36 34 32 32 44 46 48 46 45 45 45 46 43 43 43 44 45 49 51 51 50 51 51 51 50 46 43 42 39 40 40 38 38 37 37 35 35 35 35 36 36 37 36 35 34 33 32 31
38 35 31 30 44 43 45 44 45 44 45 47 45 42 41 42 43 44 45 47 49 50 51 50 50 48 46 44 41 39 40 38 37 36 36 35 34 35 34 34 34 35 35 34 33 33 31 31 29
34 30 27 24 42 44 44 41 42 42 44 43 44 44 44 42 41 41 42 42 43 42 47 49 49 47 45 42 39 38 39 37 36 34 34 34 32 33 33 34 33 32 33 32 32 31 30 29 28
22 22 22 31 44 42 39 41 39 39 41 41 43 44 41 40 39 38 39 39 38 38 39 40 39 38 39 34 33 33 36 34 33 32 32 32 31 34 34 34 31 32 31 32 30 29 28 27 25
22 20 32 43 43 39 38 39 38 38 37 41 41 40 40 39 37 37 36 36 36 38 39 39 38 37 36 34 33 31 33 34 33 32 31 31 31 31 32 32 30 29 31 30 29 28 27 26 26
20 30 40 42 40 37 37 37 36 36 35 41 41 40 39 37 36 35 34 31 34 36 37 38 38 37 35 35 32 32 32 33 32 32 31 30 30 30 31 31 29 28 29 30 29 28 28 26 25
28 33 37 40 38 37 36 35 36 36 41 41 41 39 38 36 35 34 29 29 33 35 36 37 38 37 36 35 31 30 31 32 31 32 32 30 30 29 31 31 29 27 29 30 28 28 28 27 26
32 34 35 35 35 36 35 34 35 40 41 40 39 37 36 35 31 28 29 32 33 35 36 36 36 36 34 34 31 30 31 32 31 30 32 30 30 29 31 30 30 28 29 29 29 29 28 27 27
32 32 33 33 34 33 32 32 32 40 40 39 37 36 36 36 29 29 31 33 34 35 36 36 36 35 34 33 32 30 31 31 30 29 31 30 30 30 30 30 29 29 28 29 29 29 28 27 25
29 29 29 33 33 33 31 29 33 39 38 37 36 35 35 30 29 31 33 34 33 34 35 35 36 35 32 32 33 32 30 29 30 29 30 29 30 31 29 29 29 29 28 30 29 28 26 24 24
26 21 25 28 34 33 31 30 32 38 37 36 36 35 35 32 31 32 33 32 32 33 33 33 33 32 32 30 30 32 29 28 29 29 29 28 29 30 28 28 29 28 28 29 28 27 25 23 24
20 24 25 24 31 33 31 30 32 37 37 36 36 36 34 32 31 32 33 33 33 33 33 32 30 28 29 27 25 26 27 27 28 29 28 28 29 30 27 28 29 28 27 29 27 26 25 24 24
22 21 20 19 27 32 32 31 32 36 36 36 36 36 33 33 33 33 33 33 33 33 33 31 28 27 27 26 24 23 25 24 26 28 29 28 28 29 27 29 29 28 26 28 26 25 24 23 24
25 23 21 22 32 32 31 31 32 34 35 36 35 36 34 33 33 32 32 32 32 33 32 29 27 27 26 26 26 25 25 23 26 26 26 28 28 29 29 30 29 26 25 27 26 25 23 24 25
21 20 21 21 31 31 29 28 29 32 34 35 36 36 34 33 32 32 32 32 32 32 29 28 27 26 26 25 25 25 25 24 24 24 24 28 30 30 30 29 28 25 26 27 25 25 25 23 24
18 22 22 24 28 26 26 23 22 24 30 33 34 36 35 33 33 32 33 31 31 30 28 28 27 26 25 25 24 24 24 23 25 25 24 27 29 29 28 26 26 26 27 26 26 26 25 25 25
21 25 24 24 23 23 22 20 18 20 20 29 33 35 35 34 33 34 32 32 30 28 28 28 28 27 25 24 25 23 24 25 25 24 23 24 28 27 27 25 25 27 28 27 26 26 26 26 26
25 23 22 23 22 16 18 19 18 20 22 29 33 35 35 34 34 35 33 31 29 28 28 27 27 26 25 24 24 23 22 22 21 21 23 24 25 25 24 24 25 27 27 26 25 26 27 27 28
21 20 14 13 12 11 20 16 18 24 29 32 34 36 35 35 35 32 32 30 28 28 28 28 27 25 25 24 24 22 22 21 21 22 22 22 22 24 23 24 26 26 25 25 26 25 26 27 25
17 18 16 13 14 14 17 13 18 27 36 37 36 36 35 35 33 32 32 31 29 28 28 27 26 25 24 24 23 22 20 20 22 21 20 20 22 22 23 25 25 24 24 26 24 23 25 26 25
16 17 22 19 20 17 16 19 22 30 35 36 36 35 35 33 32 32 31 30 29 28 26 25 25 23 23 23 23 19 19 19 19 19 20 20 21 22 23 25 24 23 25 25 23 23 24 25 24
15 17 13 16 11 12 16 14 14 25 33 36 35 35 34 32 32 32 30 29 28 26 26 26 24 23 22 23 21 18 19 19 19 19 19 18 19 21 23 24 23 23 25 24 23 23 24 24 24
15 14 17 18 19 12 12 14 22 22 32 36 35 35 33 32 32 31 30 28 26 25 26 25 23 22 22 22 19 18 19 18 18 18 18 18 19 21 24 24 23 24 25 23 23 24 24 24 24
20 19 19 15 14 18 20 15 29 27 34 37 35 34 34 33 32 30 28 27 26 25 27 25 22 20 22 22 20 19 18 18 17 18 18 18 18 20 24 23 23 25 24 23 24 25 24 23 23
Wind_Speed
8 10 3 3 3 4 6 3 3 4 4 5 10 11 12 7 2 4 12 23 21 17 13 14 14 14 14 14 14 14 14 14 15 15 16 16 16 16 17 18 18 18 19 19 19 20 20 21 22
7 6 2 3 3 3 12 3 10 5 14 13 13 9 10 4 3 14 12 19 21 17 15 15 15 14 14 13 12 13 14 15 16 15 14 15 16 16 16 18 18 18 18 19 19 20 20 21 21
4 3 2 3 3 8 6 6 14 18 19 5 8 10 5 4 9 13 22 21 20 17 15 16 15 14 13 12 12 13 15 15 15 15 15 15 16 16 15 17 19 19 19 20 19 21 20 21 21
7 1 3 1 1 6 5 17 14 18 5 6 18 13 6 3 11 14 23 22 19 16 16 16 15 14 13 12 12 13 14 15 16 16 15 15 16 17 16 17 18 18 18 19 20 20 21 21 21
1 3 1 2 9 2 12 19 20 19 6 7 3 7 4 3 16 28 23 20 21 16 15 14 14 13 12 12 12 12 13 15 18 17 17 16 17 17 17 17 18 18 19 19 21 21 21 23 23
3 3 2 11 11 5 14 18 13 7 11 10 9 10 4 10 23 22 20 17 17 19 14 12 13 12 11 11 11 11 13 15 18 17 17 17 18 18 18 18 19 19 20 20 21 21 22 22 22
3 2 6 7 9 8 5 8 14 15 14 6 18 7 8 11 18 20 19 19 17 16 15 13 11 11 10 9 10 8 14 15 17 17 17 17 18 18 18 18 19 19 20 20 20 20 22 21 22
6 3 2 1 6 8 13 3 8 15 3 16 12 9 11 16 21 21 20 19 17 14 12 11 9 9 8 5 5 11 15 15 17 18 18 18 19 19 19 18 19 19 19 19 20 21 21 21 22
6 5 13 11 14 5 14 10 3 8 16 2 3 13 15 29 24 22 19 12 13 11 12 12 8 7 7 4 7 14 16 16 16 17 18 16 15 16 17 18 19 20 19 20 21 22 22 23 22
8 6 10 8 14 15 13 17 15 7 8 5 8 17 32 28 25 24 21 19 17 15 13 13 11 11 11 10 12 14 15 13 12 15 15 13 15 15 17 16 20 18 19 20 20 21 21 19 14
5 13 8 7 17 25 21 17 6 19 10 12 21 28 30 26 23 24 21 21 19 16 13 12 13 13 14 12 12 11 12 12 12 14 14 14 14 15 14 12 12 12 15 11 12 13 13 15 15
4 1 12 11 15 17 24 16 10 13 9 17 31 35 30 27 25 23 19 21 21 18 16 13 12 12 11 11 11 9 11 11 11 11 12 14 13 14 14 11 12 13 13 15 14 14 14 16 16
3 6 10 18 21 19 18 13 12 14 15 27 27 27 26 25 22 18 22 19 21 20 18 15 13 10 9 11 8 8 10 11 10 10 10 11 13 14 13 10 13 15 15 14 16 15 15 16 16
3 9 13 10 12 16 17 9 12 6 21 26 29 26 24 25 21 23 26 22 21 20 18 15 14 11 9 10 6 6 9 12 10 9 9 11 11 13 13 11 13 15 14 14 14 15 15 15 15
8 8 4 12 17 11 12 9 11 23 23 28 25 24 24 19 26 30 25 24 23 20 19 17 13 10 7 7 5 4 7 11 10 9 9 11 10 11 11 11 12 14 15 16 14 13 12 14 15
5 5 7 8 15 8 12 22 8 26 28 25 24 25 24 21 26 24 24 25 21 22 21 16 12 8 4 2 2 3 6 10 8 8 8 9 9 10 11 12 12 13 15 13 12 14 14 15 15
2 11 11 5 10 6 13 13 16 27 25 26 26 26 22 21 22 24 24 26 24 24 23 18 13 8 4 7 10 5 6 7 6 7 8 7 6 7 8 9 10 12 13 13 10 12 12 18 17
15 11 10 13 11 15 15 20 7 26 24 28 27 25 23 27 27 24 25 22 22 21 20 19 15 15 12 7 7 7 6 5 4 5 5 4 2 5 6 7 9 10 12 12 10 11 10 9 15
16 11 16 19 15 16 28 21 14 24 21 22 26 28 25 25 21 20 23 24 23 21 20 18 17 14 13 9 6 7 6 5 6 4 1 1 1 5 8 7 9 10 13 10 11 8 12 12 15
19 22 26 10 7 19 15 25 18 27 37 37 36 30 27 23 22 23 23 22 20 20 20 18 18 17 14 9 5 4 3 7 6 5 7 5 9 8 7 8 9 10 11 9 11 12 10 7 13
18 13 11 7 5 4 5 14 17 20 27 22 26 24 26 33 29 26 23 21 21 22 21 20 18 16 14 12 10 9 6 5 9 11 13 13 12 12 13 13 11 11 11 7 8 10 10 10 7
5 4 5 6 9 7 4 15 14 14 27 29 29 27 27 29 25 25 24 21 22 20 20 20 17 16 13 12 11 10 8 7 6 6 10 13 13 13 13 13 12 13 10 9 8 9 7 6 10
4 1 2 1 1 3 5 7 12 10 19 27 34 28 28 29 29 27 25 22 22 21 21 19 17 16 13 12 10 10 10 7 6 8 12 11 10 12 11 12 13 13 10 9 11 12 11 7 7
4 2 5 4 2 14 8 3 13 10 15 12 16 22 30 29 27 24 23 24 21 19 20 18 18 13 11 11 11 12 11 8 10 9 11 10 7 10 11 11 13 10 10 10 11 11 12 11 9
4 4 7 6 5 17 6 2 7 13 15 9 23 26 28 28 28 29 26 24 21 21 19 17 16 13 12 12 11 10 9 9 8 9 9 10 9 6 10 11 10 9 9 10 11 13 13 11 13
4 5 5 4 6 20 5 5 5 4 12 18 20 25 26 26 25 26 25 22 21 20 16 17 15 13 12 13 11 9 9 9 6 8 7 7 7 6 8 9 8 10 10 10 13 12 11 10 12
1 4 4 6 4 6 3 1 4 8 16 20 25 26 25 25 26 26 22 20 19 17 17 17 16 14 14 12 10 9 8 9 8 8 6 6 7 7 9 6 8 10 10 10 14 12 13 13 11
1 3 4 3 4 7 5 8 11 10 14 17 21 24 24 25 25 22 21 19 17 19 17 16 16 15 13 11 9 8 9 8 7 7 6 8 9 7 7 4 8 9 9 11 13 13 13 13 13
8 6 0 1 4 6 11 8 5 14 20 22 21 23 26 25 24 23 20 19 20 18 17 18 15 14 12 11 9 10 8 8 7 6 7 8 8 6 4 4 8 9 8 12 14 14 13 14 14
13 11 7 3 5 3 1 5 19 16 21 25 23 22 21 24 24 23 22 19 17 17 17 15 13 13 12 11 10 8 7 6 7 8 9 8 8 7 2 5 8 8 9 13 14 15 15 15 16
Wind_Direction
159 156 138 61 350 13 321 324 118 142 66 31 73 99 113 42 124 173 118 121 120 114 104 94 87 78 69 61 55 50 47 43 39 34 33 31 31 27 25 24 19 14 12 8 6 4 359 356 353
160 131 74 109 60 328 295 352 143 155 137 123 75 83 54 78 52 123 106 128 120 117 106 99 94 84 73 65 60 53 49 45 39 35 33 32 29 27 25 23 18 16 12 9 7 3 0 357 353
198 211 108 143 115 287 234 160 140 139 159 120 113 50 89 112 113 140 132 129 118 117 115 108 105 96 83 73 65 57 51 46 38 35 32 32 25 23 23 19 15 13 11 10 8 3 1 357 355
176 172 9 237 188 265 206 161 150 140 93 55 115 79 80 193 153 125 131 126 124 124 120 119 115 106 91 78 71 65 57 49 38 34 31 30 25 20 24 19 14 12 11 10 8 5 2 359 358
100 78 110 240 264 278 137 168 169 145 103 129 114 123 79 132 111 131 134 138 135 128 124 127 124 116 104 93 85 74 65 53 38 32 32 28 26 17 21 18 15 12 12 11 8 6 7 5 0
105 100 219 237 248 140 158 177 169 125 129 146 93 102 135 139 114 134 134 135 127 132 140 143 136 130 119 107 98 89 72 59 38 36 33 29 24 20 18 17 16 12 14 13 9 7 9 5 2
169 163 242 304 285 110 212 203 147 138 145 161 140 98 146 143 127 124 129 131 134 140 150 153 149 143 135 125 118 91 72 64 45 41 39 34 25 25 20 17 18 14 15 12 11 10 5 4 2
145 148 214 349 161 184 157 151 132 136 133 124 142 158 173 165 137 127 127 131 139 150 152 156 150 150 162 152 139 64 79 68 52 45 42 39 25 24 20 15 18 16 15 12 12 12 6 4 1
134 235 273 256 203 215 142 135 64 75 134 112 331 156 159 146 136 128 129 130 129 130 154 162 153 195 187 170 89 79 81 73 63 53 46 39 23 14 14 11 23 10 18 12 13 9 8 5 357
178 208 255 239 175 152 149 135 139 134 141 62 70 105 132 142 143 146 153 157 148 135 130 133 119 84 121 109 91 86 93 82 72 61 53 40 28 21 20 20 20 19 17 11 15 12 9 5 349
201 245 200 192 142 142 145 139 135 150 191 195 161 144 147 149 155 158 167 165 157 137 114 101 90 83 91 93 87 78 93 85 71 63 57 43 30 19 14 15 6 6 3 354 357 2 2 360 353
249 281 164 170 145 146 161 150 155 172 214 170 157 154 154 161 167 168 162 150 143 131 121 106 93 93 87 92 83 82 88 100 79 72 64 49 33 22 16 15 4 4 352 359 1 360 358 360 355
141 140 163 164 157 162 144 172 165 206 128 133 145 154 162 168 172 162 142 137 138 130 120 108 99 96 82 92 87 86 91 111 99 82 74 55 37 24 16 10 8 6 2 6 4 3 0 359 357
143 136 138 140 140 155 160 154 146 162 140 142 152 162 169 177 156 142 143 143 133 129 122 115 103 103 95 118 117 111 113 128 103 89 87 60 42 25 18 11 9 8 6 4 11 10 4 359 357
151 139 153 148 153 168 136 182 224 156 158 154 162 168 177 171 152 154 152 143 140 136 127 117 113 111 110 134 162 125 120 132 118 102 91 64 48 26 29 19 17 8 5 11 17 13 7 5 351
150 133 207 209 185 171 168 247 182 164 160 166 170 174 181 160 156 153 149 143 137 135 127 122 121 126 115 71 172 162 126 138 134 111 96 67 48 37 29 24 16 7 13 16 24 20 10 4 355
316 252 233 264 221 165 192 246 192 173 169 171 178 182 174 151 149 152 150 145 138 130 128 122 114 98 74 78 77 91 119 142 137 113 93 74 53 57 43 31 17 13 19 22 30 31 22 2 352
239 237 248 245 221 207 208 233 183 175 181 180 180 184 170 161 163 154 147 140 133 129 123 116 96 78 83 76 72 61 76 108 94 108 111 97 59 77 48 34 22 19 23 30 30 32 20 5 341
238 249 264 277 243 183 219 225 190 181 193 187 188 191 173 164 160 139 138 136 129 126 121 114 101 81 73 68 42 28 23 65 77 82 96 195 350 68 36 30 24 23 26 49 36 18 5 2 351
253 260 268 261 240 193 217 230 209 186 206 193 192 192 169 156 154 141 138 137 135 131 119 112 99 84 79 72 54 52 66 60 82 27 30 17 21 58 35 34 30 31 26 56 38 30 8 3 6
248 253 245 241 182 246 140 249 251 218 221 208 209 192 170 161 154 148 144 138 130 127 123 113 105 95 84 73 61 51 53 47 34 26 29 28 64 53 50 43 41 20 27 73 36 22 20 359 342
248 291 238 114 152 223 179 273 259 246 217 208 205 190 166 161 144 145 142 138 128 124 120 114 110 100 87 78 70 65 58 50 33 35 34 49 44 43 43 39 29 18 36 55 19 11 6 350 346
223 181 75 43 313 280 212 264 287 302 283 221 207 180 159 158 148 144 141 130 124 125 121 118 110 102 95 86 82 66 62 69 58 37 42 37 48 38 34 31 19 37 62 30 13 2 351 341 321
142 63 24 29 29 281 288 256 294 330 311 316 186 155 148 145 140 129 126 122 120 119 120 118 111 107 99 94 83 79 75 64 48 37 44 31 21 30 23 22 31 56 39 16 7 356 353 346 337
82 51 320 301 281 267 323 316 269 315 328 178 146 138 139 138 133 130 128 127 129 128 128 121 117 110 99 96 86 82 79 63 50 46 49 32 18 5 8 24 60 38 12 7 9 356 345 336 340
188 174 192 262 264 285 301 273 261 352 43 89 108 120 124 129 125 127 132 133 134 137 131 126 120 111 99 98 87 75 68 64 61 55 51 27 17 357 11 49 49 18 6 9 6 346 328 329 334
157 215 206 259 270 283 261 302 258 102 83 98 113 118 124 120 126 130 130 130 134 132 133 130 115 110 101 97 89 73 64 58 57 48 35 20 11 360 39 76 31 7 8 11 358 333 330 328 329
91 169 296 339 287 288 288 297 282 175 141 125 119 121 117 122 123 125 129 128 124 133 134 121 115 110 106 98 88 71 60 61 50 40 26 24 9 11 47 53 14 5 6 5 345 336 329 332 323
335 321 87 167 175 268 292 291 323 216 156 139 133 131 130 130 132 135 136 132 135 133 122 119 115 113 106 98 85 71 58 50 41 22 19 15 4 6 63 27 359 0 5 357 344 338 335 332 320
89 48 58 47 330 295 345 302 348 143 137 128 128 131 130 133 139 142 140 135 128 123 124 122 119 111 111 108 91 80 68 42 29 16 12 2 3 5 134 16 358 356 10 349 337 337 332 325 318